Terug naar catalogus

ATLAS 5 CENTAUR DEB

LostHEO
NORAD 46646·DEBRIS·🇺🇸 United States

Gelanceerd Sep 17, 2014 vanaf Cape Canaveral Space Force Station

Loading…

Volgende Passages (komende 24 uur)

TLE

VerouderdSource: Space-Track

Epoch: Nov 27, 2021, 21:48 UTC

1 46646U 14055CW  21331.90840433 -.00000087  00000-0  00000+0 0  9997
2 46646  21.4093 289.7104 4640865 262.9405  44.0653  1.91398329  7856

Volg ATLAS 5 CENTAUR DEB in realtime met AllMySat

Download on the App Store